Flag for Switzerland Weather past 2 weeks in Davos, Graubünden, Switzerland

Now
68 °F

Mild.


Feels Like: 68 °F
Forecast: 49 / 77 °F
Wind: 3 mph from Southwest

Location: Chur-Ems

Current Time: Aug 4, 2015 at 2:08:21 AM

Latest Report: Aug 4, 2015 at 1:00 AM


Visibility: N/A

Pressure: 30.01 "Hg (25.08 "Hg at 1540m altitude)

Humidity: 74%

Dew point: 59 °F

Location of DavosLocation

Historic Weather in Davos — Graph

°F

Davos temperature yesterday

Maximum temperature yesterday: 86 °F (at 4:00 PM)
Minimum temperature yesterday: 60 °F (at 7:00 AM)
Average temperature yesterday: 74 °F

Past Weeks' High & Low Weather Summary

 TemperatureHumidityPressure
High92 °F (Jul 22, 4:00 PM)97% (Aug 2, 6:00 AM)30.12 "Hg (Aug 2, 6:00 AM)
Low51 °F (Jul 31, 7:00 AM)31% (Jul 22, 12:00 PM)29.65 "Hg (Jul 24, 7:00 PM)
Average69 °F67%29.92 "Hg
* Reported Midnight between Jul 19 and Jul 20 — Midnight between Aug 3 and Aug 4, Davos, Weather by CustomWeather, © 2015

Note: Actual official high and low records may vary slightly from our data, if they occured in-between our weather recording intervals... More about our weather records

Advertising

Davos weather history for previous 24 hours

 ConditionsComfort  
Time TempWeatherWind HumidityBarometerVisibility
12:00 AM
Tue, Aug 4
68 °FMild.2 mph76%30.01 "HgN/A
10:00 PM
Mon, Aug 3
74 °FMild.1 mph64%29.97 "HgN/A
9:00 PM77 °FWarm.7 mph55%29.95 "HgN/A
8:00 PM79 °FSunny.7 mph51%29.93 "Hg12 mi
7:00 PM81 °FWarm.10 mph48%29.91 "HgN/A
6:00 PM85 °FWarm.15 mph42%29.90 "HgN/A
5:00 PM85 °FPassing clouds.16 mph39%29.91 "Hg19 mi
4:00 PM86 °FPleasantly warm.15 mph38%29.92 "HgN/A
3:00 PM85 °FPleasantly warm.15 mph37%29.93 "HgN/A
2:00 PM85 °FPassing clouds.12 mph40%29.94 "Hg19 mi
1:00 PM82 °FWarm.12 mph43%29.97 "HgN/A
12:00 PM79 °FWarm.6 mph49%30.00 "HgN/A
11:00 AM75 °FPassing clouds.3 mph50%30.03 "Hg12 mi
10:00 AM71 °FMild.3 mph57%30.06 "HgN/A
9:00 AM67 °FMild.3 mph67%30.09 "HgN/A
8:00 AM63 °FPassing clouds.2 mph77%30.10 "Hg12 mi
7:00 AM60 °FCool.5 mph81%30.10 "HgN/A
4:00 AM61 °FCool.5 mph81%30.09 "HgN/A
3:00 AM61 °FCool.3 mph83%30.09 "HgN/A
2:00 AM63 °FClear.5 mph78%30.09 "Hg11 mi
Weather by CustomWeather, © 2015

See weather overviewHow to use our weather pages